Regional Weather Roundup
Issued by NWS

Home | Current Version | Previous Version | Text Only | Print | Product List | Glossary On
Versions: 1 2 3 4 5 6 7 8 9 10 11 12 13 14 15 16 17 18 19 20 21 22 23 24 25 26 27 28 29 30 31 32 33 34 35 36 37 38 39 40 41 42 43 44 45 46 47 48 49 50
640
ASUS43 KDTX 202301
RWRMI
MICHIGAN HOURLY REGIONAL WEATHER ROUNDUP
NATIONAL WEATHER SERVICE DETROIT/PONTIAC MI
700 PM EDT WED SEP 20 2017

NOTE: "FAIR" INDICATES FEW OR NO CLOUDS BELOW 12,000 FEET WITH NO
SIGNIFICANT WEATHER AND/OR OBSTRUCTION TO VISIBILITY.

MIZ047>049-052>055-059>063-066>070-074>076-081>083-210000-
SOUTHEAST LOWER MICHIGAN

CITY           SKY/WX    TMP DP  RH WIND       PRES   REMARKS
ADRIAN         CLEAR     80  65  59 S3        29.99R
ALMA           CLEAR     83  55  39 SE3       29.94S
ANN ARBOR      CLEAR     80  64  58 MISG      29.97S
BAD AXE        CLEAR     77  63  61 SW5       29.98S
CARO           CLEAR     77  65  65 SE3       29.96F
DETROIT CITY   CLEAR     79  64  60 S5        29.98S
DETROIT        PTCLDY    78  68  71 SE6       29.99S
FLINT          CLEAR     79  63  57 S5        29.96F
GROSSE ILE     CLEAR     75  67  76 S5        29.98S
HILLSDALE      MOCLDY    79  66  65 CALM      29.98S
HOWELL         CLEAR     80  63  56 SE7       29.98R

CITY           SKY/WX    TMP DP  RH WIND       PRES   REMARKS
JACKSON        CLEAR     82  64  54 S5        29.97S
LAMBERTVILLE   CLEAR     78  70  74 E3        29.98S
LANSING        CLEAR     82  60  47 S6        29.95F
LAPEER         FAIR      78  63  59 SE5       29.98F
MASON          CLEAR     83  61  46 CALM      29.96S
MONROE         CLEAR     77  68  74 E5        29.98S
MT. CLEMENS    PTCLDY    76  68  77 SE7       29.98S
PONTIAC        PTCLDY    79  65  62 SE7       29.98R
PORT HOPE        N/A     71  68  90 SE6       29.96S
PORT HURON     CLEAR     77  66  69 CALM      30.00R
TRI CITIES     CLEAR     80  66  62 SE6       29.95F
MIDLAND        FAIR      79  64  60 SE6       29.94S
TROY           CLEAR     80  64  58 SE3       30.00S
SAGINAW HB     CLEAR     79  63  57 SE8       29.95S
$$
MIZ043>046-050>051-056>058-064>065-071>073-077>080-210000-
SOUTHWEST LOWER MICHIGAN

CITY           SKY/WX    TMP DP  RH WIND       PRES   REMARKS
BATTLE CREEK   CLEAR     83  67  58 S8        29.95F
BENTON HARBOR  CLEAR     85  67  54 S9        29.90R
BIG RAPIDS     CLEAR     80  60  51 S3        29.92S
COLDWATER      CLEAR     81  67  62 S3        29.96S
FREMONT        FAIR      84  65  52 S7        29.90R
HOLLAND        CLEAR     85  67  54 S10       29.91S
GRAND RAPIDS   PTCLDY    85  67  54 S9        29.92R
IONIA          FAIR      85  63  47 S5        29.93R
KALAMAZOO      CLEAR     84  66  54 SE6       29.94S
LUDINGTON      CLEAR     82  65  56 S9G16     29.85F
MARSHALL       CLEAR     82  66  59 S5        29.95S
MOUNT PLEASANT CLEAR     83  60  46 SE5       29.93S
MUSKEGON       PTCLDY    85  66  53 S9        29.89S
SOUTH HAVEN    CLEAR     85  68  56 S6        29.91S
$$
MIZ016>042-210000-
NORTHERN LOWER MICHIGAN

CITY           SKY/WX    TMP DP  RH WIND       PRES   REMARKS
ALPENA         PTCLDY    68  67  96 SE7       29.96S FOG
BEAVER ISLAND  CLEAR     75  65  70 SE6       29.89R
BELLAIRE       CLEAR     78  63  59 SE6       29.89S
CADILLAC       CLEAR     80  62  53 SE10      29.93S
CHARLEVOIX     PTCLDY    77  64  63 SE8       29.91S
FRANKFORT      CLEAR     83  66  56 SE12      29.85S
GAYLORD        CLEAR     73  62  68 S10       29.94F
GRAYLING       CLEAR     74  63  66 SE10      29.95F
HARBOR SPRINGS CLEAR     76  64  65 E5        29.90S
HOUGHTON LAKE  CLEAR     75  64  68 SE6       29.96S
MANISTEE       CLEAR     83  67  58 VRB3      29.85S
OSCODA         CLEAR     73  65  78 S9        29.96F HAZE
PELLSTON       CLEAR     76  64  66 SE10      29.91S
ROGERS CITY    CLOUDY    74  66  75 SE7       29.95R
TRAVERSE CITY  MOCLDY    81  63  54 CALM      29.87R
$$
MIZ007>008-015-210000-
EASTERN UPPER MICHIGAN

CITY           SKY/WX    TMP DP  RH WIND       PRES   REMARKS
KINROSS        CLOUDY    72  66  81 SE15      29.92S
MACKINAC ISLAN CLEAR     70  65  84 SE5       29.90S
NEWBERRY       CLEAR     73  67  81 S7        29.89R
S. S. MARIE    CLOUDY    71  65  81 SE8       29.91F
MUNISING         N/A     74  65  73 S7        29.84R
$$
MIZ004>006-011>014-085-210000-
CENTRAL UPPER MICHIGAN

CITY           SKY/WX    TMP DP  RH WIND       PRES   REMARKS
MANISTIQUE     CLEAR     69  64  82 CALM      29.88R
ESCANABA       CLEAR     71  66  84 E8        29.85
MENOMINEE      PTCLDY    74  66  76 S6        29.84S
SAWYER-GWINN   CLOUDY    72  64  78 S15       29.85S
$$
MIZ001>003-009>011-084-210000-
WESTERN UPPER MICHIGAN

CITY           SKY/WX    TMP DP  RH WIND       PRES   REMARKS
IRON MOUNTAIN  PTCLDY    72  64  76 SE6       29.83S
HOUGHTON       CLOUDY    67  65  93 S9        29.83R FOG
COPPER HARBOR    N/A     68  66  93 SW8       29.81R
IRONWOOD       CLOUDY    71  63  75 W5        29.84R
$$

ABBREVIATIONS USED IN REMARKS
   TC - TEMPERATURE IN CELSIUS
  WCI - WIND CHILL INDEX
   HX - HEAT INDEX
  VSB - VISIBILITY





USA.gov is the U.S. government's official web portal to all federal, state and local government web resources and services.